Weather in Rautalakhti

Russia / Republic of Karelia     61°45′22″N   30°53′27″E
В апреле 2022 года жителям России запретили посещать сайт meteo.paraplan.net по решению Генеральной прокуратуры. Аудитория сайта уменьшилась в 10 раз. Владельцы сайта не видят смысла в поддержке погодного сервера в таких условиях. Сайт будет закрыт в октябре.
temp.,
°C
wind,
m/s
gust,
m/s
humid.,
%
clouds,
%
prec.,
mm/h
press.,
hPa
HPBL,
m
4 october, tue
tue400:00+5ne71589100 3.7 1004756
03:00+5ne61393100 9.9 1003681
06:00+6ene4109492 2.7 1004437
09:00+8e379459 2.8 1005407
12:00+10e4681100 0.0 1005601
15:00+11e378292 0.1 1006756
18:00+10e2593100 1.4 1007160
21:00+9ene389459 1.9 1007282
5 october, wed
wed500:00+7ene249750 0.0 100887
03:00+8ene2595100 0.0 1008164
06:00+8se379287 0.1 1009439
09:00+8se2689100 0.1 1009413
12:00+9s4579100 0.2 1009754
15:00+9s347896 0.2 1010756
18:00+8sse3589100 0.0 1010334
21:00+8sse269694 0.0 1010243
6 october, thu
thu600:00+8s3792100 0.3 1010420
03:00+8sse4993100 1.3 1009487
06:00+9s5998100 0.2 1007389
09:00+9s61397100 0.3 1005514
12:00+10s71398100 2.4 1003792
15:00+11ssw61393100 2.5 1001718
18:00+11sw61497100 4.2 999793
21:00+12wnw71378100 5.6 999977
7 october, fri
fri700:00+10w5118531 0.9 1001766
03:00+9wsw51188100 0.9 1002890
06:00+9wsw41183100 0.1 1003540
09:00+9w61184100 1.0 1004803
12:00+10w61082100 0.4 10061040
15:00+11w6117611 1.0 10081080
18:00+9w4118066 0.1 1010553
21:00+8wsw4128538 0.1 1011452
8 october, sat
sat800:00+8sw41192100 0.0 1011493
03:00+10sw51393100 0.7 1009751
06:00+10ssw61393100 0.8 1007880
09:00+10ssw71487100 0.8 1006850
12:00+10ssw71380100 0.0 1005915
15:00+11ssw71375100 0.0 10031146
18:00+10ssw61488100 1.2 10021317
21:00+10sw71385100 1.9 1001932